Location: Auckland
(36.8670°S, 174.7670°E)
Time: 02:06:56
(UTC+13:00)

SL-08 R/B - Pass Details

Date: 24 January 2019
Orbit: 946 x 994 km, 83.0° (Epoch: 13 October)

Event Time Altitude Azimuth Distance (km) Brightness Sun altitude
Exits shadow 22:42:58 23° 353° (N) 1,887 5.6 -21.1°
Maximum altitude 22:46:57 87° 265° (W) 966 4.4 -21.6°
Drops below altitude 10° 22:53:11 10° 174° (S) 2,720 7.4 -22.4°
Sets 22:55:43 0° 173° (S) 3,679 8.1 -22.8°
